(185996) = 2001 PR32

Discovered at Palomar on 2001-08-10 by NEAT.

Orbit

Orbit type: Phocaea

Note: WebGL enabled browser required.

epoch2023-02-25.0
epoch JD2460000.5
perihelion date2020-05-06.24299
perihelion JD2458975.74299
argument of perihelion (°)321.10208
ascending node (°)346.30875
inclination (°)23.54939
eccentricity0.1874146
perihelion distance (AU)1.9675187
Tisserand w.r.t. Jupiter3.4
ΔV w.r.t. Earth (km/sec)11.4
semimajor axis (AU)2.4213069
mean anomaly (°)268.07110
mean daily motion (°/day)0.26159480
aphelion distance (AU)2.875
period (years)3.77
P-vector [x]0.61990420
P-vector [y]-0.58234143
P-vector [z]-0.52592514
Q-vector [x]0.77895821
Q-vector [y]0.37592748
Q-vector [z]0.50189903
absolute magnitude16.25
phase slope0.15
uncertainty0
referenceMPO 745323
observations used629
oppositions15
arc length (days)8474
first opposition used2000
last opposition used2023
residual rms (arc-secs)0.82
perturbers coarse indicatorM-v
perturbers precise indicator003Ek
first observation date used2000-03-03.0
last observation date used2023-05-16.0
computer nameMPCLINUX
JD of orbit computation2456639.690781
perihelion JD uncertainty (days)3.2281E-04
argument of perihelion uncertainty (°)7.1392E-05
ascending node uncertainty (°)2.4959E-05
inclination uncertainty (°)1.7451E-05
eccentricity uncertainty 1.2836E-07
perihelion distance uncertainty (AU)2.8468E-07
Minimum Orbit Intersection Distances (in AU)
for orbit epoch: 2460000.5, reference: E2023-K42
Mercury1.54098
Venus1.25552
Earth0.99094
Mars0.62447
Jupiter2.56653
Saturn6.41104
Uranus15.6539
Neptune27.5821

Observations

640 total observations over interval: 2000 03 03.32268 – 2023 05 16.298122
These data are available for download (format description).

Date (UT) J2000 RA J2000 Dec Magn Location Ref
2000 03 03.32268 11 08 53.32 +06 51 04.8   704 – Lincoln Laboratory ETS, New Mexico MPS 134755
2000 03 03.35304 11 08 51.15 +06 51 04.6   704 – Lincoln Laboratory ETS, New Mexico MPS 134755
2000 03 03.36756 11 08 49.99 +06 51 04.6   704 – Lincoln Laboratory ETS, New Mexico MPS 134755
2000 03 03.38187 11 08 48.91 +06 51 04.6   704 – Lincoln Laboratory ETS, New Mexico MPS 134755
2000 03 03.39605 11 08 47.82 +06 51 04.8   704 – Lincoln Laboratory ETS, New Mexico MPS 134755
2001 08 10.42044 22 38 17.28 -29 24 06.3 18.4   644 – Palomar Mountain/NEAT MPS 33454
2001 08 10.43105 22 38 16.25 -29 24 01.8 18.5   644 – Palomar Mountain/NEAT MPS 33454
2001 08 10.44279 22 38 15.17 -29 23 56.5 18.4   644 – Palomar Mountain/NEAT MPS 33454
2001 08 16.32336 22 28 57.93 -28 35 44.5 18.2   644 – Palomar Mountain/NEAT MPS 33454
2001 08 16.33442 22 28 56.80 -28 35 38.5 18.2   644 – Palomar Mountain/NEAT MPS 33454
2001 08 16.34478 22 28 55.76 -28 35 32.9 18.1   644 – Palomar Mountain/NEAT MPS 33454
2001 08 27.24251 22 11 06.44 -26 38 53.8 18.1   644 – Palomar Mountain/NEAT MPS 34547
2001 08 27.25318 22 11 05.39 -26 38 46.0 18.0   644 – Palomar Mountain/NEAT MPS 34547
2001 08 27.26380 22 11 04.34 -26 38 38.1 18.1   644 – Palomar Mountain/NEAT MPS 34547
2001 09 07.14564 21 55 04.40 -24 11 11.5 18.6   644 – Palomar Mountain/NEAT MPS 34547
2001 09 07.16665 21 55 02.71 -24 10 53.0 18.4   644 – Palomar Mountain/NEAT MPS 34547
2001 09 07.18826 21 55 00.95 -24 10 34.4 18.5   644 – Palomar Mountain/NEAT MPS 34547
2001 09 11.27261 21 49 57.53 -23 09 40.8 18.5   704 – Lincoln Laboratory ETS, New Mexico MPS 34547
2001 09 11.28770 21 49 56.41 -23 09 27.5 18.9   704 – Lincoln Laboratory ETS, New Mexico MPS 34547
2001 09 11.30288 21 49 55.33 -23 09 13.0 18.5   704 – Lincoln Laboratory ETS, New Mexico MPS 34547
2001 09 11.31797 21 49 54.25 -23 08 59.0 18.8   704 – Lincoln Laboratory ETS, New Mexico MPS 34547
2001 09 11.33314 21 49 53.15 -23 08 45.1 18.8   704 – Lincoln Laboratory ETS, New Mexico MPS 34547
2001 09 19.17964 21 42 04.10 -21 07 09.5 18.9   704 – Lincoln Laboratory ETS, New Mexico MPS 35897
2001 09 19.19395 21 42 03.43 -21 06 57.5 19.1   704 – Lincoln Laboratory ETS, New Mexico MPS 35897
2001 09 19.22371 21 42 01.83 -21 06 30.3 19.3   704 – Lincoln Laboratory ETS, New Mexico MPS 35897
2001 09 19.23815 21 42 01.11 -21 06 15.1 19.4   704 – Lincoln Laboratory ETS, New Mexico MPS 35897
2001 09 21.17506 21 40 30.20 -20 35 45.7 18.9   704 – Lincoln Laboratory ETS, New Mexico MPS 35897
2001 09 21.18969 21 40 29.48 -20 35 31.2 19.1   704 – Lincoln Laboratory ETS, New Mexico MPS 35897
2001 09 21.20542 21 40 28.69 -20 35 16.8 19.1   704 – Lincoln Laboratory ETS, New Mexico MPS 35897
2004 03 19.34770 12 09 01.91 -14 26 27.4 20.8 V 291 – LPL/Spacewatch II MPS 134755
2004 03 19.35178 12 09 01.60 -14 26 28.0 20.8 V 291 – LPL/Spacewatch II MPS 134755
2004 03 19.35587 12 09 01.28 -14 26 28.7 20.6 V 291 – LPL/Spacewatch II MPS 134755
2004 03 26.25648 12 00 05.50 -14 38 08.1 19.6 R 699 – Lowell Observatory-LONEOS MPS 134755
2004 03 26.27932 12 00 03.70 -14 38 08.5   699 – Lowell Observatory-LONEOS MPS 134755
2004 03 26.30215 12 00 01.86 -14 38 11.1   699 – Lowell Observatory-LONEOS MPS 134755
2004 03 26.32496 12 00 00.05 -14 38 12.5   699 – Lowell Observatory-LONEOS MPS 134755
2005 08 03.38961 00 58 56.77 +08 48 11.3 19.8   704 – Lincoln Laboratory ETS, New Mexico MPS 138831
2005 08 03.40131 00 58 56.76 +08 48 21.6 19.7   704 – Lincoln Laboratory ETS, New Mexico MPS 138831
2005 08 03.41304 00 58 56.82 +08 48 32.3 19.6   704 – Lincoln Laboratory ETS, New Mexico MPS 138831
2005 08 03.42483 00 58 56.84 +08 48 43.7 19.5   704 – Lincoln Laboratory ETS, New Mexico MPS 138831
2005 08 30.93764 00 47 23.30 +15 10 45.3 18.8 V A13 – Observatoire Naef, Ependes MPS 140067
2005 08 30.93932 00 47 23.20 +15 10 46.6 19.1 V A13 – Observatoire Naef, Ependes MPS 140067
2005 08 30.95298 00 47 22.42 +15 10 57.0 18.9 V A13 – Observatoire Naef, Ependes MPS 140067
2005 08 30.95462 00 47 22.28 +15 10 57.7 19.0 V A13 – Observatoire Naef, Ependes MPS 140067
2005 08 31.29210 00 47 03.19 +15 15 07.3 19.3   704 – Lincoln Laboratory ETS, New Mexico MPS 140067
2005 08 31.30317 00 47 02.54 +15 15 14.9 18.9   704 – Lincoln Laboratory ETS, New Mexico MPS 140067
2005 08 31.31416 00 47 01.89 +15 15 23.1 19.4   704 – Lincoln Laboratory ETS, New Mexico MPS 140067
2005 08 31.32554 00 47 01.17 +15 15 31.0 18.6   704 – Lincoln Laboratory ETS, New Mexico MPS 140067
2005 09 10.32201 00 35 49.14 +17 06 42.8 18.5 R 699 – Lowell Observatory-LONEOS MPS 141608
2005 09 10.34480 00 35 47.29 +17 06 56.8   699 – Lowell Observatory-LONEOS MPS 141608
2005 09 10.36759 00 35 45.51 +17 07 09.9   699 – Lowell Observatory-LONEOS MPS 141608
2005 09 10.39032 00 35 43.73 +17 07 23.5   699 – Lowell Observatory-LONEOS MPS 141608
2005 09 12.29017 00 33 15.93 +17 25 53.0 19.3   704 – Lincoln Laboratory ETS, New Mexico MPS 141608
2005 09 12.30158 00 33 15.00 +17 25 59.4 19.3   704 – Lincoln Laboratory ETS, New Mexico MPS 141608
2005 09 12.31298 00 33 14.08 +17 26 03.8 19.3   704 – Lincoln Laboratory ETS, New Mexico MPS 141608
2005 09 12.32440 00 33 13.16 +17 26 09.2 19.7   704 – Lincoln Laboratory ETS, New Mexico MPS 141608
2005 09 12.33590 00 33 12.14 +17 26 17.5 19.4   704 – Lincoln Laboratory ETS, New Mexico MPS 141608
2005 09 26.35926 00 13 05.32 +19 11 11.9 18.7 R 644 – Palomar Mountain/NEAT MPS 142508
2005 09 26.38215 00 13 03.23 +19 11 19.2 18.6 R 644 – Palomar Mountain/NEAT MPS 142508
2005 09 26.40417 00 13 01.21 +19 11 26.1 18.7 R 644 – Palomar Mountain/NEAT MPS 142508
2005 09 30.36951 00 07 08.67 +19 30 33.7 18.5 R 699 – Lowell Observatory-LONEOS MPS 143499
2005 09 30.38885 00 07 06.92 +19 30 39.1   699 – Lowell Observatory-LONEOS MPS 143499
2005 09 30.40799 00 07 05.16 +19 30 42.8   699 – Lowell Observatory-LONEOS MPS 143499
2005 09 30.44604 00 07 01.76 +19 30 52.5   699 – Lowell Observatory-LONEOS MPS 143499
2005 10 02.31140 00 04 18.76 +19 38 16.8 18.8 R 644 – Palomar Mountain/NEAT MPS 143499
2005 10 02.33326 00 04 16.81 +19 38 21.5 18.8 R 644 – Palomar Mountain/NEAT MPS 143499
2005 10 02.35534 00 04 14.82 +19 38 26.3 18.8 R 644 – Palomar Mountain/NEAT MPS 143499
2005 10 05.25950 00 00 06.33 +19 48 01.6 18.8 V 703 – Catalina Sky Survey MPS 143499
2005 10 05.26590 00 00 05.76 +19 48 03.3 18.9 V 703 – Catalina Sky Survey MPS 143499
2005 10 05.27236 00 00 05.29 +19 48 03.8 18.8 V 703 – Catalina Sky Survey MPS 143499
2005 10 05.27874 00 00 04.71 +19 48 05.4 18.8 V 703 – Catalina Sky Survey MPS 143499
2005 10 13.20435 23 49 40.22 +20 03 59.4 18.4   704 – Lincoln Laboratory ETS, New Mexico MPS 143499
2005 10 13.21536 23 49 39.35 +20 04 00.1 19.2   704 – Lincoln Laboratory ETS, New Mexico MPS 143499
2005 10 13.22634 23 49 38.56 +20 04 00.3 19.2   704 – Lincoln Laboratory ETS, New Mexico MPS 143499
2005 10 13.23737 23 49 37.77 +20 04 00.5 18.9   704 – Lincoln Laboratory ETS, New Mexico MPS 143499
2005 10 13.24836 23 49 36.86 +20 04 02.0 19.5   704 – Lincoln Laboratory ETS, New Mexico MPS 143499
2005 10 23.21035 23 39 12.88 +20 08 16.8 19.2 V 703 – Catalina Sky Survey MPS 145850
2005 10 23.21836 23 39 12.42 +20 08 16.1 19.2 V 703 – Catalina Sky Survey MPS 145850
2005 10 23.22635 23 39 11.98 +20 08 15.9 19.0 V 703 – Catalina Sky Survey MPS 145850
2005 10 23.23439 23 39 11.62 +20 08 16.7 18.8 V 703 – Catalina Sky Survey MPS 145850
2005 10 24.17236 23 38 24.01 +20 08 05.8 19.4 R 644 – Palomar Mountain/NEAT MPS 145850
2005 10 24.18435 23 38 23.40 +20 08 05.2 19.3 R 644 – Palomar Mountain/NEAT MPS 145850
2005 10 24.19657 23 38 22.75 +20 08 05.2 19.5 R 644 – Palomar Mountain/NEAT MPS 145850
2005 10 29.15017 23 34 44.43 +20 06 07.3 18.8 V 703 – Catalina Sky Survey MPS 147249
2005 10 29.15660 23 34 44.18 +20 06 07.1 19.6 V 703 – Catalina Sky Survey MPS 147249
2005 10 29.16300 23 34 43.86 +20 06 06.2 19.6 V 703 – Catalina Sky Survey MPS 147249
2005 10 29.16941 23 34 43.53 +20 06 06.9 19.3 V 703 – Catalina Sky Survey MPS 147249
2005 11 29.14541 23 32 57.44 +20 09 06.0 20.0   704 – Lincoln Laboratory ETS, New Mexico MPS 151850
2005 11 29.15845 23 32 57.78 +20 09 07.9 20.3   704 – Lincoln Laboratory ETS, New Mexico MPS 151850
